| time (UTC) | temp C | wind direction | speed KPH | gust KPH | rain 1hr cm | rain 24hr cm | rain mn cm | humidity % | barometer mb |
| 20260831133751 | 15 | 227 | 30.6 | 30.6 | 0.00 | 0.03 | 0.00 | 50 | 1008.9 |
| 20260831132254 | 14 | 227 | 14.5 | 29.0 | 0.00 | 0.03 | 0.00 | 51 | 1008.8 |
| 20260831130740 | 13 | 200 | 14.5 | 27.4 | 0.00 | 0.03 | 0.00 | 52 | 1008.9 |
| 20260831125300 | 13 | 207 | 20.9 | 32.2 | 0.00 | 0.03 | 0.00 | 52 | 1008.7 |
| 20260831123800 | 13 | 194 | 19.3 | 29.0 | 0.00 | 0.05 | 0.00 | 53 | 1008.6 |
| 20260831122246 | 13 | 223 | 20.9 | 29.0 | 0.00 | 0.05 | 0.00 | 54 | 1008.6 |
| 20260831120748 | 13 | 205 | 24.1 | 32.2 | 0.00 | 0.05 | 0.00 | 54 | 1008.3 |
| 20260831115313 | 14 | 204 | 14.5 | 29.0 | 0.00 | 0.05 | 0.00 | 52 | 1008.5 |
| 20260831113752 | 15 | 218 | 9.7 | 27.4 | 0.00 | 0.08 | 0.00 | 51 | 1008.3 |
| 20260831112258 | 14 | 207 | 11.3 | 24.1 | 0.00 | 0.08 | 0.00 | 53 | 1008.3 |
| 20260831110743 | 14 | 229 | 20.9 | 27.4 | 0.00 | 0.08 | 0.00 | 53 | 1008.3 |
| 20260831105249 | 14 | 258 | 14.5 | 24.1 | 0.00 | 0.08 | 0.00 | 53 | 1008.4 |
| 20260831103753 | 14 | 205 | 25.7 | 27.4 | 0.00 | 0.08 | 0.00 | 53 | 1008.4 |
| 20260831102252 | 13 | 224 | 19.3 | 32.2 | 0.00 | 0.08 | 0.00 | 53 | 1008.4 |
| 20260831100755 | 13 | 217 | 14.5 | 29.0 | 0.00 | 0.08 | 0.00 | 53 | 1008.5 |
| 20260831095241 | 13 | 219 | 16.1 | 25.7 | 0.00 | 0.08 | 0.00 | 54 | 1008.3 |
| 20260831093804 | 12 | 207 | 11.3 | 19.3 | 0.00 | 0.08 | 0.00 | 55 | 1008.1 |
| 20260831092244 | 12 | 213 | 8.0 | 17.7 | 0.00 | 0.08 | 0.00 | 55 | 1008.0 |
| 20260831090749 | 13 | 229 | 9.7 | 19.3 | 0.00 | 0.08 | 0.00 | 54 | 1008.0 |
| 20260831085250 | 12 | 230 | 9.7 | 20.9 | 0.00 | 0.08 | 0.00 | 55 | 1008.0 |
| 20260831083755 | 11 | 191 | 3.2 | 6.4 | 0.00 | 0.08 | 0.00 | 58 | 1008.0 |
| 20260831082257 | 11 | 194 | 6.4 | 6.4 | 0.00 | 0.08 | 0.00 | 57 | 1007.9 |
| 20260831080819 | 11 | 169 | 4.8 | 9.7 | 0.00 | 0.08 | 0.00 | 57 | 1008.0 |
| 20260831075308 | 10 | 189 | 3.2 | 3.2 | 0.00 | 0.08 | 0.00 | 63 | 1008.8 |
| 20260831073749 | 10 | 189 | 0.0 | 0.0 | 0.00 | 0.08 | 0.00 | 63 | 1008.9 |
| 20260831072249 | 10 | 189 | 0.0 | 6.4 | 0.00 | 0.08 | 0.00 | 61 | 1009.0 |
| 20260831070757 | 11 | 189 | 1.6 | 3.2 | 0.00 | 0.08 | 0.00 | 59 | 1009.3 |
| 20260831065240 | 11 | 189 | 1.6 | 4.8 | 0.00 | 0.08 | 0.00 | 59 | 1009.3 |
| 20260831063748 | 11 | 189 | 3.2 | 6.4 | 0.00 | 0.08 | 0.00 | 58 | 1009.2 |
| 20260831062253 | 12 | 189 | 4.8 | 8.0 | 0.00 | 0.08 | 0.00 | 58 | 1009.4 |
| 20260831060815 | 12 | 161 | 1.6 | 9.7 | 0.00 | 0.08 | 0.00 | 57 | 1009.4 |
| 20260831055259 | 12 | 145 | 8.0 | 11.3 | 0.00 | 0.08 | 0.08 | 58 | 1009.2 |
| 20260831053800 | 13 | 138 | 8.0 | 9.7 | 0.00 | 0.08 | 0.08 | 56 | 1009.4 |
| 20260831052241 | 11 | 156 | 1.6 | 6.4 | 0.00 | 0.08 | 0.08 | 62 | 1009.5 |
| 20260831050809 | 12 | 244 | 1.6 | 4.8 | 0.00 | 0.08 | 0.08 | 59 | 1009.6 |
| 20260831045248 | 12 | 244 | 0.0 | 0.0 | 0.00 | 0.08 | 0.08 | 59 | 1009.6 |
| 20260831043747 | 12 | 243 | 0.0 | 3.2 | 0.00 | 0.08 | 0.08 | 59 | 1009.6 |
| 20260831042312 | 12 | 244 | 1.6 | 3.2 | 0.00 | 0.08 | 0.08 | 58 | 1009.6 |
| 20260831040752 | 12 | 244 | 0.0 | 1.6 | 0.00 | 0.08 | 0.08 | 59 | 1009.5 |
| 20260831035257 | 12 | 244 | 0.0 | 3.2 | 0.00 | 0.08 | 0.08 | 56 | 1009.5 |
| 20260831033759 | 13 | 243 | 0.0 | 0.0 | 0.00 | 0.08 | 0.08 | 52 | 1009.2 |
| 20260831032301 | 15 | 244 | 0.0 | 0.0 | 0.00 | 0.08 | 0.08 | 50 | 1009.4 |
| 20260831030747 | 15 | 243 | 0.0 | 3.2 | 0.00 | 0.08 | 0.08 | 49 | 1009.4 |
| 20260831025249 | 15 | 244 | 0.0 | 1.6 | 0.00 | 0.08 | 0.08 | 48 | 1009.3 |
| 20260831023751 | 16 | 243 | 3.2 | 4.8 | 0.00 | 0.08 | 0.08 | 46 | 1009.0 |
| 20260831022258 | 17 | 244 | 0.0 | 6.4 | 0.00 | 0.08 | 0.08 | 44 | 1008.6 |
| 20260831020819 | 17 | 231 | 3.2 | 8.0 | 0.00 | 0.08 | 0.08 | 45 | 1008.8 |
| 20260831015242 | 18 | 273 | 0.0 | 3.2 | 0.00 | 0.08 | 0.08 | 43 | 1008.6 |
| 20260831013741 | 18 | 273 | 0.0 | 3.2 | 0.00 | 0.08 | 0.08 | 42 | 1008.5 |
| 20260831012242 | 19 | 273 | 3.2 | 8.0 | 0.00 | 0.08 | 0.08 | 41 | 1008.6 |
| 20260831010748 | 20 | 273 | 9.7 | 14.5 | 0.00 | 0.08 | 0.08 | 39 | 1008.6 |
| 20260831005248 | 21 | 263 | 14.5 | 22.5 | 0.00 | 0.08 | 0.08 | 37 | 1008.5 |
| 20260831003750 | 21 | 238 | 25.7 | 25.7 | 0.00 | 0.08 | 0.08 | 39 | 1008.5 |
| 20260831002255 | 21 | 247 | 19.3 | 27.4 | 0.00 | 0.08 | 0.08 | 39 | 1008.4 |
| 20260831000815 | 21 | 258 | 20.9 | 29.0 | 0.00 | 0.08 | 0.08 | 37 | 1008.3 |
| 20260830235315 | 21 | 219 | 24.1 | 30.6 | 0.00 | 0.08 | 0.08 | 37 | 1008.2 |
| 20260830233740 | 21 | 231 | 11.3 | 22.5 | 0.00 | 0.08 | 0.08 | 41 | 1009.1 |
| 20260830232246 | 21 | 239 | 16.1 | 37.0 | 0.00 | 0.08 | 0.08 | 39 | 1009.2 |
| 20260830230752 | 21 | 212 | 14.5 | 27.4 | 0.00 | 0.08 | 0.08 | 46 | 1009.2 |
| 20260830225313 | 21 | 236 | 14.5 | 20.9 | 0.00 | 0.08 | 0.08 | 50 | 1009.3 |
| 20260830223753 | 20 | 227 | 11.3 | 22.5 | 0.00 | 0.08 | 0.08 | 55 | 1009.3 |
| 20260830222320 | 19 | 221 | 20.9 | 25.7 | 0.00 | 0.08 | 0.08 | 55 | 1009.5 |
| 20260830220821 | 18 | 256 | 17.7 | 27.4 | 0.00 | 0.08 | 0.08 | 55 | 1009.8 |
| 20260830215305 | 18 | 263 | 17.7 | 20.9 | 0.00 | 0.08 | 0.08 | 56 | 1010.1 |
| 20260830213748 | 17 | 197 | 3.2 | 4.8 | 0.00 | 0.08 | 0.08 | 56 | 1008.9 |
| 20260830212248 | 18 | 197 | 0.0 | 16.1 | 0.00 | 0.08 | 0.08 | 56 | 1008.9 |
| 20260830210749 | 18 | 204 | 16.1 | 20.9 | 0.00 | 0.08 | 0.08 | 59 | 1009.7 |
| 20260830205254 | 18 | 202 | 14.5 | 27.4 | 0.00 | 0.08 | 0.08 | 59 | 1010.7 |
| 20260830203755 | 18 | 175 | 16.1 | 29.0 | 0.00 | 0.08 | 0.08 | 59 | 1010.6 |
| 20260830202240 | 18 | 228 | 11.3 | 30.6 | 0.00 | 0.08 | 0.08 | 61 | 1010.5 |
| 20260830200745 | 18 | 224 | 14.5 | 27.4 | 0.00 | 0.08 | 0.08 | 57 | 1009.9 |
| 20260830195306 | 19 | 226 | 25.7 | 32.2 | 0.00 | 0.08 | 0.08 | 56 | 1009.8 |
| 20260830193751 | 19 | 242 | 19.3 | 38.6 | 0.00 | 0.08 | 0.08 | 55 | 1009.7 |
| 20260830192254 | 20 | 289 | 11.3 | 20.9 | 0.00 | 0.08 | 0.08 | 49 | 1009.0 |
| 20260830190755 | 19 | 292 | 11.3 | 20.9 | 0.00 | 0.08 | 0.08 | 55 | 1008.5 |
| 20260830185321 | 19 | 304 | 22.5 | 30.6 | 0.00 | 0.08 | 0.08 | 58 | 1008.5 |
| 20260830183740 | 18 | 288 | 30.6 | 33.8 | 0.00 | 0.08 | 0.08 | 60 | 1009.1 |
| 20260830182244 | 18 | 267 | 19.3 | 33.8 | 0.00 | 0.08 | 0.08 | 59 | 1009.4 |
| 20260830180751 | 19 | 248 | 25.7 | 33.8 | 0.00 | 0.08 | 0.08 | 60 | 1009.5 |
| 20260830175250 | 18 | 278 | 19.3 | 40.2 | 0.00 | 0.08 | 0.08 | 59 | 1009.6 |
| 20260830173755 | 18 | 263 | 20.9 | 38.6 | 0.00 | 0.08 | 0.08 | 62 | 1009.8 |
| 20260830172254 | 18 | 261 | 16.1 | 29.0 | 0.00 | 0.08 | 0.08 | 62 | 1009.6 |
| 20260830170756 | 18 | 259 | 20.9 | 24.1 | 0.00 | 0.08 | 0.08 | 67 | 1009.6 |
| 20260830165258 | 18 | 279 | 20.9 | 32.2 | 0.00 | 0.08 | 0.08 | 62 | 1009.4 |
| 20260830163759 | 18 | 280 | 19.3 | 38.6 | 0.00 | 0.08 | 0.08 | 60 | 1009.2 |
| 20260830162240 | 18 | 277 | 30.6 | 40.2 | 0.00 | 0.08 | 0.08 | 58 | 1009.0 |
| 20260830160745 | 18 | 276 | 22.5 | 33.8 | 0.00 | 0.08 | 0.08 | 66 | 1008.9 |
| 20260830155307 | 18 | 269 | 20.9 | 33.8 | 0.00 | 0.08 | 0.08 | 71 | 1008.7 |
| 20260830153810 | 17 | 279 | 20.9 | 33.8 | 0.03 | 0.08 | 0.08 | 70 | 1008.5 |
| 20260830152254 | 17 | 293 | 29.0 | 29.0 | 0.03 | 0.08 | 0.08 | 74 | 1008.6 |
| 20260830150753 | 16 | 302 | 17.7 | 29.0 | 0.03 | 0.08 | 0.08 | 78 | 1008.3 |
| 20260830145315 | 16 | 284 | 20.9 | 25.7 | 0.03 | 0.08 | 0.08 | 81 | 1008.4 |
| 20260830143737 | 16 | 282 | 17.7 | 24.1 | 0.00 | 0.05 | 0.05 | 83 | 1008.4 |
| 20260830142241 | 16 | 260 | 16.1 | 20.9 | 0.00 | 0.05 | 0.05 | 83 | 1008.3 |
| 20260830140749 | 16 | 279 | 8.0 | 11.3 | 0.00 | 0.05 | 0.05 | 83 | 1008.1 |
| 20260830135249 | 16 | 265 | 6.4 | 9.7 | 0.00 | 0.05 | 0.05 | 82 | 1008.1 |